Location: Atlanta
(33.7490°N, 84.3880°W)
Time: 12:36:32
(UTC-04:00)

Daily predictions for brighter satellites

Satellite Brightness Start Highest point End
(mag) Time Altitude Azimuth Time Altitude Azimuth Time Altitude Azimuth
Okean 2 3.8 20:25:28 10° N 20:29:26 41° E 20:33:20 10° SSE
Cosmos 2227 Rocket 2.9 20:24:46 10° N 20:29:59 36° ENE 20:35:08 10° SE
Hubble Space Telescope 2.5 20:27:15 10° WSW 20:30:35 23° SSW 20:33:55 10° SE
H-2A R/B 4.0 20:27:30 10° WSW 20:31:14 42° S 20:48:47 10° ESE
Myojo/LAPS 4.0 20:30:51 10° WSW 20:33:42 27° S 20:35:45 10° ESE
HJ-1C 3.3 20:32:50 10° SSE 20:36:05 75° ENE 20:39:23 10° N
OAO 2 Rocket 3.4 20:33:10 10° W 20:38:09 84° N 20:43:15 10° E
NOAA 12 4.5 20:34:51 10° S 20:40:03 70° WSW 20:45:17 10° NNW
Meteor 1-29 3.4 20:39:25 10° N 20:42:51 66° WNW 20:46:18 10° SSW
Meteor 2-16 Rocket 4.4 20:38:11 10° S 20:44:15 80° E 20:50:20 10° N
Meteor 1-5 Rocket 4.1 20:39:37 10° S 20:44:56 87° E 20:50:24 10° N
Cosmos 2297 Rocket 2.9 20:39:55 10° N 20:45:03 34° ENE 20:50:09 10° SE
Cosmos 2082 4.0 20:40:30 10° N 20:45:54 46° ENE 20:51:17 10° SE
ALOS 2.7 20:42:26 10° SE 20:46:48 42° ENE 20:51:13 10° N
FREGAT/IRIS 4.2 20:44:06 10° S 20:47:04 40° W 20:50:03 10° NNW
ATLAS 2A CENTAUR R/B 3.1 20:47:28 10° W 20:52:01 19° SW 20:54:12 10° SSE
Cosmos 1346 Rocket 2.8 20:48:16 10° N 20:52:13 66° E 20:56:12 10° SSE
Helios 1A 3.3 20:48:06 10° S 20:52:15 70° WSW 20:56:26 10° NNW
USA 186 2.8 20:51:43 13° SE 20:53:52 25° ENE 20:56:21 10° NNE
ATLAS 3B CENTAUR R/B 2.0 20:52:47 10° SW 20:54:12 15° SSW 20:55:10 11° SSE
OTV 4 0.3 20:53:31 10° WNW 20:56:29 81° NNE 20:58:28 19° ESE
NOSS 3-4 (A) 3.9 20:52:07 10° NNW 20:59:17 88° ENE 21:06:50 10° SSE
NOSS 3-4 (C) 3.9 20:52:15 10° NNW 20:59:24 87° ENE 21:06:58 10° SSE
SL-24 R/B - RUBIN 2 4.3 20:55:49 10° SSW 21:01:28 89° ESE 21:07:52 10° NNE
Cosmos 1461 2.7 21:00:26 10° NNW 21:04:27 82° ENE 21:07:47 14° SSE
Cosmos 1605 Rocket 4.0 21:03:54 10° S 21:10:15 90° ESE 21:16:34 10° N
CZ-4B DEB 3.1 21:08:05 10° S 21:11:20 68° W 21:14:36 10° NNW
Cosmos 1743 4.0 21:13:07 21° E 21:13:07 21° E 21:16:06 10° NE
Cosmos 1697 Rocket 2.6 21:10:55 10° S 21:16:31 68° ESE 21:22:07 10° NNE
Tiangong 1 3.4 21:14:59 10° NW 21:17:07 17° N 21:18:49 12° NE
RESURS DK-1 3.9 21:15:56 10° NNE 21:19:02 20° ENE 21:19:37 19° ENE
Cosmos 2100 Rocket 4.3 21:14:10 10° SSE 21:20:03 43° E 21:25:53 10° NNE
H-2A R/B 4.0 21:20:46 13° ENE 21:20:46 13° ENE 21:22:19 10° NE
Envisat 4.0 21:23:25 24° E 21:24:45 27° ENE 21:28:58 10° NNE
Iridium 4 Rocket 3.2 21:20:55 10° N 21:25:45 61° E 21:29:07 17° SSE
Cosmos 1626 Rocket 3.4 21:22:40 10° N 21:27:04 81° E 21:30:34 16° S
Cosmos 2298 Rocket 4.2 21:23:58 10° N 21:29:11 55° ENE 21:31:50 28° SE
Cosmos 2061 Rocket 4.2 21:24:10 10° SSE 21:30:11 48° E 21:36:09 10° NNE
Cosmos 1937 Rocket 4.2 21:25:44 10° N 21:30:34 35° ENE 21:32:04 30° ESE
Cosmos 2084 3.8 21:28:06 10° NNW 21:32:04 45° NE 21:33:09 37° E
Cosmos 1602 Rocket 3.6 21:32:23 10° N 21:36:51 77° W 21:40:24 15° S
H-2A R/B 3.5 21:35:06 11° S 21:38:42 52° W 21:42:33 10° NNW
Cosmos 1980 Rocket 2.1 21:34:27 10° S 21:40:02 64° ESE 21:45:39 10° NNE
Cosmos 220 Rocket 4.0 21:36:50 10° NNW 21:41:03 73° WSW 21:43:07 29° S
Lacrosse 5 2.6 21:38:59 10° NNW 21:43:43 39° NE 21:44:53 34° ENE
Cosmos 1975 4.4 21:43:51 10° SSW 21:47:39 37° W 21:51:29 10° NNW
SPOT 5 4.0 21:49:22 28° ENE 21:49:22 28° ENE 21:53:06 10° NNE
Cosmos 1459 Rocket 3.8 21:43:11 10° S 21:49:11 72° E 21:55:15 10° N
ERS-1 Rocket 2.9 21:48:21 42° SE 21:49:54 64° ENE 21:54:52 10° N
Cosmos 2150 Rocket 3.8 21:49:42 10° NNW 21:54:52 84° ENE 21:56:29 45° SSE
BREEZE-M TANK 3.6 21:48:16 10° WNW 21:56:56 40° NNE 21:58:04 33° NE
Lacrosse 5 rocket 2.0 21:54:15 10° NW 21:57:41 39° SW 21:57:58 38° SW
Cosmos 2098 Rocket 4.3 22:00:54 43° SE 22:02:10 49° E 22:07:58 10° NNE
Cosmos 1763 Rocket 3.3 21:57:28 10° SSW 22:02:35 81° ESE 22:07:40 10° NNE
SJ-11-01 4.2 22:01:23 50° S 22:02:37 83° W 22:07:19 10° NNW
Cosmos 1606 Rocket 3.6 22:06:33 66° NE 22:06:33 66° NE 22:10:28 10° N
CZ-4 DEB 4.2 22:07:23 37° NW 22:07:23 37° NW 22:09:33 10° NNW
Cosmos 2263 Rocket 4.4 22:08:08 10° NE 22:09:09 11° NE 22:09:09 11° NE
Cosmos 1898 Rocket 3.8 22:05:43 10° NNW 22:10:57 63° WSW 22:12:34 42° SSW
DELTA 2 R/B (1) 3.4 22:06:57 10° WNW 22:12:31 83° SSW 22:13:06 72° SE
Cosmos 2322 Rocket 3.8 22:16:55 21° NE 22:16:55 21° NE 22:18:49 10° NE
Cosmos 2227 Rocket 4.1 22:09:14 10° NW 22:13:46 25° WSW 22:18:16 10° SSW
Cosmos 1340 4.2 22:18:15 10° N 22:20:21 31° N 22:20:21 31° N
OAO 2 Rocket 3.3 22:18:03 10° W 22:22:50 78° NW 22:22:50 78° NW
Cosmos 1939 Rocket 3.6 22:25:01 52° WNW 22:25:01 52° WNW 22:28:37 10° NNW
Meteor 2-9 Rocket 4.4 22:26:59 58° NE 22:26:59 58° NE 22:31:24 10° NNE
Cosmos 841 Rocket 3.7 22:23:27 30° SSW 22:26:02 68° WNW 22:31:15 10° NNE
SL-08 R/B 4.3 22:25:28 60° S 22:26:42 86° E 22:32:55 10° N
Cosmos 1802 Rocket 4.4 22:21:57 14° SSW 22:27:29 64° W 22:33:53 10° N
Cosmos 2360 4.4 22:22:08 10° SSW 22:27:48 70° WNW 22:33:32 10° NNE
Meteor 1-21 4.1 22:22:51 10° N 22:28:40 88° W 22:29:03 79° S
Cosmos 2297 Rocket 4.0 22:24:14 10° NW 22:28:53 27° WSW 22:32:06 16° SSW
Cosmos 1726 Rocket 4.5 22:30:19 45° NNW 22:30:19 45° NNW 22:33:29 10° N
MetOp-A 4.4 22:33:48 60° NNE 22:33:48 60° NNE 22:38:16 10° N
Cosmos 2016 Rocket 4.3 22:34:59 34° SSW 22:37:38 63° W 22:43:47 10° N
Cosmos 2227 4.3 22:32:20 10° NNW 22:37:26 69° N 22:37:26 69° N
ASTEX 1 4.1 22:41:39 10° N 22:45:35 51° NNW 22:45:35 51° NNW
H-2A R/B 4.1 22:57:54 24° NW 22:57:54 24° NW 22:59:53 10° NNW
SL-16 R/B 3.6 23:13:10 32° N 23:13:10 32° N 23:16:14 10° NNE
ARGOS 4.5 23:16:23 35° NNW 23:16:23 35° NNW 23:19:28 10° NNW
H-2A R/B 4.2 23:27:29 19° N 23:27:29 19° N 23:28:49 10° N
Lacrosse 5 4.2 23:22:15 10° WNW 23:24:05 19° W 23:24:05 19° W
